Location: Asheville, NC
(35.6000°N, 82.5500°W)
Time: 23:09:38

Vanguard 2 Rocket - Pass Details

Date: 11 March 2018
Orbit: 554 x 3327 km, 32.9° (Epoch: 20 March)

Event Time Altitude Azimuth Distance (km) Brightness Sun altitude
Rises 22:49:06 0° 275° (W) 3,432 10.6 -39.1°
Reaches altitude 10° 22:51:11 10° 270° (W) 2,713 9.9 -39.4°
Enters shadow 22:54:38 36° 252° (WSW) 1,783 8.5 -40.1°
Maximum altitude 22:57:38 56° 194° (SSW) 1,601 - -40.6°
Drops below altitude 10° 23:09:06 10° 120° (ESE) 4,688 - -42.5°
Sets 23:13:54 0° 117° (ESE) 6,139 - -43.3°
